TimeIST,TemperatureF,Dew PointF,Humidity,Sea Level PressureIn,VisibilityMPH,Wind Direction,Wind SpeedMPH,Gust SpeedMPH,PrecipitationIn,Events,Conditions,WindDirDegrees,DateUTC
12:00 AM,78.8,55.4,44,29.92,1.9,Calm,Calm,-,N/A,,Haze,0,2012-10-06 18:30:00
1:00 AM,77.0,55.4,47,29.92,1.9,Calm,Calm,-,N/A,,Haze,0,2012-10-06 19:30:00
2:00 AM,73.4,55.4,53,29.89,1.9,Calm,Calm,-,N/A,,Haze,0,2012-10-06 20:30:00
2:30 AM,73,59,53,29.85,1,Calm,Calm,,,,Haze,,2012-10-06 21:00:00
3:00 AM,71.6,59.0,64,29.89,1.9,Calm,Calm,-,N/A,,Haze,0,2012-10-06 21:30:00
4:00 AM,71.6,59.0,64,29.89,1.9,Calm,Calm,-,N/A,,Haze,0,2012-10-06 22:30:00
5:00 AM,71.6,59.0,64,29.89,1.9,Calm,Calm,-,N/A,,Haze,0,2012-10-06 23:30:00
5:30 AM,72,59,55,29.86,1,Calm,Calm,,,,Haze,,2012-10-07 00:00:00
6:00 AM,68.0,59.0,73,29.92,1.9,Calm,Calm,-,N/A,,Haze,0,2012-10-07 00:30:00
7:00 AM,71.6,57.2,60,29.95,1.9,Calm,Calm,-,N/A,,Haze,0,2012-10-07 01:30:00
8:00 AM,80.6,57.2,45,29.95,1.9,Calm,Calm,-,N/A,,Haze,0,2012-10-07 02:30:00
8:30 AM,83,54,27,29.87,1,ENE,2.3,,,,Haze,70,2012-10-07 03:00:00
9:00 AM,84.2,55.4,37,29.98,2.5,East,6.9,-,N/A,,Haze,80,2012-10-07 03:30:00
9:30 AM,86.0,55.4,35,29.98,2.5,East,6.9,-,N/A,,Haze,90,2012-10-07 04:00:00
10:00 AM,87.8,55.4,33,29.98,2.5,East,6.9,-,N/A,,Haze,80,2012-10-07 04:30:00
10:30 AM,89.6,53.6,29,29.98,2.5,East,6.9,-,N/A,,Haze,100,2012-10-07 05:00:00
11:00 AM,89.6,53.6,29,29.98,2.5,ESE,6.9,-,N/A,,Haze,120,2012-10-07 05:30:00
11:30 AM,92,55,19,29.88,2,East,5.8,,,,Haze,90,2012-10-07 06:00:00
12:00 PM,91.4,55.4,29,29.98,2.5,Variable,5.8,-,N/A,,Haze,0,2012-10-07 06:30:00
1:00 PM,93.2,55.4,28,29.95,2.5,Variable,2.3,-,N/A,,Haze,0,2012-10-07 07:30:00
2:00 PM,95.0,53.6,25,29.89,2.5,South,4.6,-,N/A,,Haze,170,2012-10-07 08:30:00
2:30 PM,96,51,13,29.74,2,NNW,2.3,,,,Haze,340,2012-10-07 09:00:00
3:00 PM,95.0,51.8,23,29.89,2.5,ESE,3.5,-,N/A,,Haze,120,2012-10-07 09:30:00
4:00 PM,93.2,51.8,24,29.89,2.5,Variable,2.3,-,N/A,,Haze,0,2012-10-07 10:30:00
5:00 PM,93.2,50.0,23,29.89,2.5,Calm,Calm,-,N/A,,Haze,0,2012-10-07 11:30:00
5:30 PM,93,51,15,29.78,2,SE,1.2,,,,Haze,140,2012-10-07 12:00:00
5:30 PM,91.4,51.8,26,29.89,2.5,Variable,1.2,-,N/A,,Haze,0,2012-10-07 12:00:00
6:00 PM,89.6,51.8,27,29.89,2.5,Variable,2.3,-,N/A,,Haze,0,2012-10-07 12:30:00
7:00 PM,84.2,53.6,35,29.89,1.6,Variable,1.2,-,N/A,,Haze,0,2012-10-07 13:30:00
7:30 PM,80.6,53.6,39,29.89,1.6,Calm,Calm,-,N/A,,Haze,0,2012-10-07 14:00:00
8:00 PM,82.4,53.6,37,29.92,1.6,Calm,Calm,-,N/A,,Haze,0,2012-10-07 14:30:00
8:30 PM,79,61,45,29.85,1,Calm,Calm,,,,Haze,,2012-10-07 15:00:00
8:30 PM,82.4,57.2,42,29.92,1.6,Calm,Calm,-,N/A,,Haze,0,2012-10-07 15:00:00
9:00 PM,80.6,57.2,45,29.92,1.6,Calm,Calm,-,N/A,,Haze,0,2012-10-07 15:30:00
10:00 PM,78.8,57.2,47,29.92,1.6,Calm,Calm,-,N/A,,Haze,0,2012-10-07 16:30:00
11:00 PM,77.0,57.2,50,29.92,1.6,Calm,Calm,-,N/A,,Haze,0,2012-10-07 17:30:00
11:30 PM,76,62,52,29.85,1,Calm,Calm,,,,Haze,,2012-10-07 18:00:00